Location: Huppendorf
(49.9333°N, 11.1500°E)
Time: 04:00:31
(UTC+00:00)

NOSS 2-3 (C) - Pass Details

Date: 27 February 2020
Orbit: 585 x 1627 km, 63.4° (Epoch: 26 March)

Event Time Altitude Azimuth Distance (km) Brightness Sun altitude
Rises 17:50:48 0° 227° (SW) 2,839 7.8 -10.0°
Reaches altitude 10° 17:52:54 10° 229° (SW) 1,987 6.9 -10.3°
Maximum altitude 17:57:18 76° 315° (NW) 718 4.0 -11.1°
Drops below altitude 10° 18:02:41 10° 42° (NE) 2,417 6.2 -11.9°
Enters shadow 18:04:31 - 43° (NE) 3,143 6.8 -12.2°
